STARLINK-34258, 64211

Orbit data source: Space-Track

STARLINK-34258, 64211 is a payload satellite owned by SpaceX/Seattle (US) in LEO that was launched on Sat, 31 May 2025 UTC via an FALCON 9 launch vehicle from the Air Force Western Test Range (AFWTR). Payload-class satellites include a variety of spacecraft equipped with specific instruments for various scientific and technological missions. These include communications satellites like Starlink; space stations such as the ISS; scientific satellites like the Hubble; Earth observation satellites from companies like Planet Labs, Umbra, and HawkEye 360; GPS; miniature CubeSats for education and research; and military/defense satellites.

Loading next visibility...
Identifier
64211, 2025-117J
Orbit
LEO
Country
Flag of USUS
Related business
Manufacturer
SpaceX/Seattle
Mission
Operational Commercial Communications
Bus & Motor
STARLINK V2MO, Unknown motor
Mass
575 kg wet, ~530 kg dry
Launch date (UTC)
2025-05-31 (1 year ago)
Launch vehicle
FALCON 9
Launch site
Air Force Western Test Range (AFWTR)
Object type
Payload
Rocket body
Debris
Shape & HBR
Box + 1 Pan, 17.7 m
Radar Cross Section
41.120 m², Large (>1 m²)

Expand to show TLE details & history
Last TLE update: 13 hours ago

TLE from 13 hours ago
0 STARLINK-34258
1 64211U 25117J   26235.71295840  .00031696  00000-0  94518-3 0  9999
2 64211  53.1603 341.2539 0000864  78.3859 281.7241 15.34402761 70138
Epoch: 2026-08-23T17:06Z
TLE epoch observation values (Epoch: 2026-08-23T17:06:39.605Z)
Latitude
Longitude
112.58381°
Altitude
463.476 km
Speed
7.636 km/s
True Right ascension
22h 45m 00s
True Declination
0° 00' 00"
Sunlit
Object was in full shadow at epoch
Visualization orbit readout
Latitude
Unknown
Longitude
Unknown
Altitude
Unknown
Speed
Unknown
Apparent Right ascension
Unknown
Apparent Declination
Unknown
Sunlit
N/A
Visualization observer readout
Local Sidereal Time
21:41:46
Azimuth
Unknown
Elevation
Unknown
Doppler factor
Unknown
Orbital elements
Apogee altitude
463.543 km
Perigee altitude
462.361 km
Semi-major axis
6,841.089 km
Eccentricity
0.00009
Inclination
53.1603°
RAAN
341.2539°
Arg. of periapsis
78.3859°
True anomaly
281.71441°
Mean anomaly
281.7241°
Eccentric anomaly
281.71925°
Mean motion
3.83579 °/min
Orbital period
93.85 mins
BSTAR
0.00094518
Loading maneuver chart data...
Computing Atmospheric mass density...
Loading historical data...
Loading historical data...
Loading historical data...
Loading historical data...
Loading historical data...
Loading historical data...
Loading historical data...

Documentation

Showing up to 5 results
|